[[{"header":{"parameterUnit":"m.s-1","parameterCategory":1,"la1":30.2991,"la2":30.254,"lo1":-89.0895,"lo2":-89.0444,"dy":0.0017,"dx":0.0017,"nx":28,"ny":28,"refTime":"2025-09-14T09:00:00:Z","depth":0,"parameterNumber":2,"parameterNumberName":"U-component_of_WINDS"},"data":[0,0,0,0,0,0,0,0,0,0,0,0,0,0,0,0,0,0,0,0,0,0,0,0,0,0,0,0,0,0,0,0,0,0,0,0,0,0,0,0,0,0,0,0,0,0,0,0,0,0,0,0,0,0,0,0,0,0,-0.211,-0.2111,0,-0.2247,-0.2248,-0.225,-0.2241,-0.2239,-0.2237,-0.2235,-0.2382,-0.2387,-0.2393,0,0,0,0,0,0,0,0,0,0,0,0,0,-0.1846,-0.185,-0.211,-0.2112,-0.2113,-0.2247,-0.2249,-0.225,-0.2242,-0.2239,-0.2237,-0.2235,-0.238,-0.2387,-0.2394,0,0,0,0,0,0,0,0,0,0,0,0,0,-0.1969,-0.1852,-0.211,-0.2125,-0.2128,-0.2246,-0.2249,-0.2251,-0.2242,-0.2239,-0.2236,-0.2233,-0.2378,-0.2386,-0.2395,-0.2509,0,0,-0.2421,-0.2425,0,0,0,0,0,0,0,0,-0.1962,-0.1979,-0.2121,-0.2124,-0.2127,-0.2224,-0.2209,-0.2338,-0.2243,-0.2199,-0.2235,-0.2232,-0.2332,-0.2344,-0.2377,-0.2516,-0.2522,-0.2422,-0.2427,-0.2431,-0.2433,0,0,0,0,0,0,0,-0.1954,-0.1973,-0.2164,-0.2123,-0.2127,-0.2126,-0.2141,-0.2233,-0.2281,-0.2203,-0.2202,-0.2218,-0.2333,-0.2369,-0.238,-0.2524,-0.2422,-0.2429,-0.2435,-0.2438,-0.2763,-0.2766,0,0,0,0,0,0,-0.1941,-0.1966,-0.216,-0.2168,-0.2035,-0.2134,-0.215,-0.2196,-0.228,-0.229,-0.2221,-0.2217,-0.2355,-0.237,-0.2385,-0.2524,-0.2431,-0.2439,-0.2444,-0.2759,-0.2763,-0.2767,0,0,0,0,0,0,-0.1935,-0.1958,-0.2154,-0.2067,-0.2092,-0.2141,-0.2194,-0.22,-0.2235,-0.2294,-0.2303,-0.2248,-0.2353,-0.2373,-0.2478,-0.2529,-0.2443,-0.2451,-0.2755,-0.2761,-0.2765,-0.2802,0,0,0,0,0,0,-0.1928,-0.1956,-0.1999,-0.2068,-0.2097,-0.2243,-0.2197,-0.2205,-0.225,-0.2247,-0.2321,-0.2331,-0.2353,-0.2465,-0.2486,-0.2539,-0.2457,-0.2751,-0.2758,-0.2764,-0.2796,-0.2807,-0.2817,0,0,0,0,0,-0.1918,-0.2006,-0.2001,-0.2025,-0.2151,-0.2246,-0.2262,-0.2284,-0.2254,-0.2298,-0.2335,-0.2328,-0.252,-0.2475,-0.25,-0.2556,-0.2748,-0.2756,-0.2763,-0.2791,-0.2805,-0.2817,0,0,0,0,0,0,-0.1944,-0.2015,-0.2011,-0.2123,-0.2178,-0.2244,-0.23,-0.2298,-0.2365,-0.2359,-0.2385,-0.2402,-0.2506,-0.2542,-0.2491,-0.267,-0.263,-0.2643,-0.2643,-0.2657,-0.2667,-0.2656,-0.2465,0,0,0,0,0,-0.1962,-0.2031,-0.2091,-0.2184,-0.2211,-0.2251,-0.2293,-0.2305,-0.2364,-0.2388,-0.2433,-0.2492,-0.2565,-0.2613,-0.2684,-0.2801,-0.2817,-0.2852,-0.2862,-0.2871,-0.2881,-0.2945,-0.2961,-0.2792,-0.2792,-0.2792,0,0,-0.2001,-0.2049,-0.2091,-0.219,-0.2234,-0.2306,-0.2271,-0.2349,-0.2404,-0.2401,-0.2501,-0.2536,-0.2604,-0.2714,-0.2766,-0.2747,-0.2931,-0.288,-0.2886,-0.2893,-0.2955,-0.2971,-0.2985,-0.2798,-0.2797,-0.2796,0,0,-0.2109,-0.2152,-0.2233,-0.2278,-0.2344,-0.237,-0.2389,-0.2456,-0.2478,-0.2579,-0.2577,-0.2643,-0.2769,-0.2817,-0.2858,-0.2983,-0.2979,-0.3005,-0.306,-0.3122,-0.3135,-0.3147,-0.3191,-0.3206,-0.3016,-0.3016,-0.3016,0,-0.215,-0.2257,-0.2276,-0.2354,-0.2398,-0.2396,-0.2479,-0.2522,-0.2609,-0.264,-0.2617,-0.2774,-0.282,-0.2941,-0.2971,-0.3005,-0.3028,-0.2997,-0.3131,-0.3143,-0.3155,-0.3197,-0.3213,-0.3019,-0.3018,-0.3018,-0.3018,0,-0.2303,-0.2378,-0.2436,-0.2517,-0.2567,-0.2648,-0.268,-0.2729,-0.2736,-0.2765,-0.2867,-0.2922,-0.3003,-0.3033,-0.3042,-0.3156,-0.3142,-0.3125,-0.3085,-0.3173,-0.3213,-0.3229,-0.3023,-0.3022,-0.3021,-0.302,0,0,-0.2431,-0.2521,-0.2542,-0.2578,-0.2651,-0.2709,-0.279,-0.2867,-0.2908,-0.2969,-0.3037,-0.3143,-0.3127,-0.3174,-0.3188,-0.3242,-0.3337,-0.3219,-0.3221,-0.3238,-0.3465,-0.3476,-0.3494,-0.3334,-0.3338,-0.334,-0.3459,0,-0.2546,-0.2686,-0.2705,-0.283,-0.2899,-0.2898,-0.2968,-0.3021,-0.305,-0.3114,-0.3147,-0.3221,-0.3195,-0.3223,-0.3276,-0.3314,-0.3382,-0.3305,-0.3399,-0.3402,-0.3381,-0.3515,-0.3528,-0.3637,-0.3475,-0.3477,-0.3479,0,-0.2698,-0.2759,-0.2891,-0.2952,-0.2982,-0.3045,-0.3116,-0.3177,-0.3238,-0.3255,-0.3305,-0.3313,-0.3397,-0.3354,-0.3471,-0.3418,-0.3458,-0.3482,-0.3486,-0.3496,-0.3446,-0.3528,-0.3673,-0.3689,-0.3504,-0.3502,-0.35,0,-0.2777,-0.2893,-0.2986,-0.3017,-0.3092,-0.3136,-0.317,-0.3227,-0.3271,-0.3335,-0.3364,-0.3438,-0.3478,-0.3535,-0.3562,-0.3528,-0.3677,-0.3636,-0.3694,-0.3693,-0.3725,-0.3723,-0.3878,-0.3752,-0.3752,-0.3752,-0.3751,0,-0.2902,-0.2982,-0.3022,-0.3079,-0.3169,-0.3191,-0.328,-0.3312,-0.3363,-0.3427,-0.3432,-0.3493,-0.3525,-0.3591,-0.3613,-0.3706,-0.3725,-0.3741,-0.3746,-0.374,-0.3738,-0.3766,-0.3759,-0.3756,-0.3755,-0.3754,-0.3753,0,-0.3005,-0.3035,-0.3136,-0.3198,-0.3215,-0.3279,-0.3333,-0.3389,-0.3416,-0.3498,-0.3518,-0.3563,-0.364,-0.3673,-0.3769,-0.3784,-0.389,-0.389,-0.3869,-0.3871,-0.3927,-0.3921,-0.4105,-0.413,-0.3988,-0.3989,-0.3991,0,-0.3083,-0.3144,-0.3212,-0.3254,-0.3288,-0.3357,-0.3402,-0.3426,-0.3473,-0.3545,-0.3593,-0.367,-0.3733,-0.3857,-0.3899,-0.3972,-0.3973,-0.4033,-0.3984,-0.3976,-0.3973,-0.3969,-0.3975,-0.4041,-0.4043,-0.4044,-0.4045,0,-0.3217,-0.3228,-0.3292,-0.336,-0.3413,-0.3469,-0.3524,-0.3559,-0.3592,-0.3645,-0.3723,-0.3771,-0.3868,-0.3944,-0.402,-0.4056,-0.4057,-0.406,-0.4077,-0.4072,-0.4056,-0.4064,-0.3893,-0.4055,-0.4054,-0.4054,-0.4053,-0.4053,-0.3309,-0.3363,-0.3418,-0.3489,-0.3532,-0.3583,-0.3638,-0.3671,-0.3736,-0.3815,-0.3827,-0.391,-0.3969,-0.407,-0.4109,-0.4175,-0.416,-0.4186,-0.4192,-0.4198,-0.42,-0.4046,-0.419,-0.4189,-0.4189,-0.4189,-0.4189,0,-0.3442,-0.3478,-0.3542,-0.3617,-0.3673,-0.3666,-0.3726,-0.3773,-0.3846,-0.39,-0.3961,-0.405,-0.4124,-0.4171,-0.4246,-0.429,-0.4292,-0.4309,-0.4306,-0.4314,-0.421,-0.4187,-0.4306,-0.4306,-0.4306,-0.4306,-0.4306,-0.4306,-0.3518,-0.3608,-0.3626,-0.3738,-0.3773,-0.3853,-0.3888,-0.3935,-0.3977,-0.4076,-0.4137,-0.4166,-0.4218,-0.4296,-0.4364,-0.4376,-0.4403,-0.4421,-0.4432,-0.4334,-0.4322,-0.431,-0.4288,-0.4427,-0.4427,-0.453,-0.4531,-0.4532]},{"header":{"parameterUnit":"m.s-1","parameterCategory":1,"la1":30.2991,"la2":30.254,"lo1":-89.0895,"lo2":-89.0444,"dy":0.0017,"dx":0.0017,"nx":28,"ny":28,"refTime":"2025-09-14T09:00:00:Z","depth":0,"parameterNumber":3,"parameterNumberName":"V-component_of_WINDS"},"data":[0,0,0,0,0,0,0,0,0,0,0,0,0,0,0,0,0,0,0,0,0,0,0,0,0,0,0,0,0,0,0,0,0,0,0,0,0,0,0,0,0,0,0,0,0,0,0,0,0,0,0,0,0,0,0,0,0,0,-1.5453,-1.5454,0,-1.5502,-1.5502,-1.5503,-1.5484,-1.5483,-1.5482,-1.5481,-1.5529,-1.5532,-1.5534,0,0,0,0,0,0,0,0,0,0,0,0,0,-1.5344,-1.5346,-1.5453,-1.5454,-1.5455,-1.5502,-1.5502,-1.5503,-1.5484,-1.5483,-1.5482,-1.548,-1.5529,-1.5531,-1.5534,0,0,0,0,0,0,0,0,0,0,0,0,0,-1.5392,-1.5346,-1.5453,-1.5451,-1.5451,-1.5502,-1.5502,-1.5503,-1.5485,-1.5483,-1.5481,-1.548,-1.5528,-1.5531,-1.5535,-1.559,0,0,-1.5545,-1.5547,0,0,0,0,0,0,0,0,-1.5389,-1.5396,-1.5451,-1.5451,-1.5452,-1.5485,-1.5481,-1.5532,-1.5485,-1.5472,-1.5481,-1.5479,-1.5516,-1.552,-1.5533,-1.5592,-1.5594,-1.5546,-1.5548,-1.5549,-1.555,0,0,0,0,0,0,0,-1.5386,-1.5393,-1.5472,-1.5451,-1.5452,-1.5447,-1.5452,-1.5491,-1.5503,-1.5473,-1.5472,-1.5478,-1.5516,-1.553,-1.5534,-1.5595,-1.5546,-1.5549,-1.5551,-1.5552,-1.5702,-1.5704,0,0,0,0,0,0,-1.5382,-1.5391,-1.5471,-1.5474,-1.5416,-1.5451,-1.5456,-1.5476,-1.5502,-1.5505,-1.5479,-1.5477,-1.5525,-1.553,-1.5536,-1.5603,-1.5549,-1.5553,-1.5555,-1.57,-1.5703,-1.5705,0,0,0,0,0,0,-1.538,-1.539,-1.5469,-1.5432,-1.5442,-1.5454,-1.5477,-1.5478,-1.5492,-1.5507,-1.5509,-1.5491,-1.5524,-1.5531,-1.5577,-1.5605,-1.5554,-1.5557,-1.5698,-1.5701,-1.5704,-1.5738,0,0,0,0,0,0,-1.5377,-1.5389,-1.541,-1.5433,-1.5444,-1.551,-1.5479,-1.548,-1.5498,-1.5495,-1.5519,-1.5521,-1.5523,-1.5572,-1.558,-1.5608,-1.556,-1.5696,-1.5699,-1.5703,-1.5734,-1.5741,-1.5747,0,0,0,0,0,-1.5373,-1.5417,-1.5411,-1.5421,-1.5471,-1.5511,-1.5518,-1.5519,-1.55,-1.5522,-1.5532,-1.552,-1.56,-1.5576,-1.5586,-1.5616,-1.5694,-1.5698,-1.5702,-1.5731,-1.574,-1.5747,0,0,0,0,0,0,-1.5397,-1.542,-1.5414,-1.5467,-1.5487,-1.5508,-1.5535,-1.5528,-1.5554,-1.555,-1.555,-1.5556,-1.5603,-1.5614,-1.5587,-1.5671,-1.5644,-1.565,-1.5663,-1.5671,-1.5678,-1.5675,-1.5563,0,0,0,0,0,-1.5409,-1.544,-1.5458,-1.5503,-1.5514,-1.5523,-1.554,-1.554,-1.5561,-1.5569,-1.5582,-1.5603,-1.5632,-1.5652,-1.568,-1.5735,-1.574,-1.576,-1.5767,-1.5772,-1.5778,-1.5809,-1.5818,-1.5719,-1.5718,-1.5718,0,0,-1.5433,-1.5449,-1.5469,-1.5508,-1.5524,-1.5557,-1.553,-1.5565,-1.5589,-1.5574,-1.5619,-1.5629,-1.5652,-1.5703,-1.5726,-1.5713,-1.5806,-1.5777,-1.5782,-1.5785,-1.5814,-1.5824,-1.5832,-1.5721,-1.5721,-1.572,0,0,-1.5494,-1.5509,-1.5549,-1.5565,-1.559,-1.5595,-1.5605,-1.5627,-1.5633,-1.5678,-1.5668,-1.5696,-1.5747,-1.5764,-1.5779,-1.5847,-1.5838,-1.5856,-1.5891,-1.5921,-1.5929,-1.5936,-1.5962,-1.5971,-1.5861,-1.5861,-1.5861,0,-1.5521,-1.557,-1.557,-1.5606,-1.5624,-1.5612,-1.5653,-1.5669,-1.5701,-1.5713,-1.5698,-1.5762,-1.5777,-1.5832,-1.5849,-1.5861,-1.5873,-1.5854,-1.5928,-1.5935,-1.5942,-1.5966,-1.5976,-1.5864,-1.5863,-1.5863,-1.5863,0,-1.5602,-1.5636,-1.5665,-1.5698,-1.5719,-1.5757,-1.5763,-1.5784,-1.5781,-1.5788,-1.5834,-1.5851,-1.5883,-1.5896,-1.5893,-1.5951,-1.5943,-1.5928,-1.5901,-1.5953,-1.5976,-1.5986,-1.5867,-1.5866,-1.5865,-1.5865,0,0,-1.5681,-1.5713,-1.5724,-1.5739,-1.5765,-1.5791,-1.5828,-1.586,-1.5879,-1.5901,-1.5933,-1.5976,-1.5963,-1.5981,-1.5979,-1.6006,-1.606,-1.5988,-1.5988,-1.6002,-1.6126,-1.6139,-1.615,-1.6053,-1.6055,-1.6056,-1.6125,0,-1.5745,-1.5812,-1.5813,-1.5875,-1.5907,-1.5896,-1.5928,-1.5948,-1.5956,-1.5983,-1.5991,-1.6023,-1.6002,-1.6013,-1.6038,-1.6048,-1.6085,-1.6043,-1.6084,-1.6085,-1.6081,-1.6161,-1.6174,-1.6238,-1.6134,-1.6135,-1.6136,0,-1.5829,-1.5855,-1.592,-1.5943,-1.5956,-1.5986,-1.6015,-1.6042,-1.6064,-1.6067,-1.6087,-1.6082,-1.612,-1.6091,-1.6145,-1.6116,-1.6132,-1.614,-1.6142,-1.6148,-1.6115,-1.617,-1.6259,-1.6269,-1.615,-1.6149,-1.6148,0,-1.5882,-1.5933,-1.5979,-1.5992,-1.6019,-1.604,-1.6052,-1.6072,-1.6091,-1.6116,-1.6129,-1.6158,-1.6175,-1.6197,-1.62,-1.6179,-1.6254,-1.6225,-1.6259,-1.6259,-1.6277,-1.6276,-1.6371,-1.6285,-1.6285,-1.6284,-1.6284,0,-1.5955,-1.5995,-1.6003,-1.6032,-1.6077,-1.6077,-1.6122,-1.6132,-1.615,-1.618,-1.6172,-1.62,-1.6202,-1.6231,-1.6233,-1.6278,-1.6284,-1.6289,-1.6289,-1.6291,-1.629,-1.6303,-1.6299,-1.6287,-1.6286,-1.6286,-1.6285,0,-1.6022,-1.6029,-1.6078,-1.61,-1.6106,-1.6139,-1.6157,-1.6184,-1.619,-1.6229,-1.6238,-1.6248,-1.6282,-1.6287,-1.6326,-1.6327,-1.6381,-1.6376,-1.6375,-1.6375,-1.6409,-1.6406,-1.6516,-1.6531,-1.6434,-1.6435,-1.6435,0,-1.6069,-1.61,-1.6125,-1.6145,-1.6159,-1.619,-1.621,-1.6212,-1.6233,-1.626,-1.6284,-1.6317,-1.6344,-1.6398,-1.6409,-1.6439,-1.6436,-1.6472,-1.644,-1.6441,-1.6438,-1.6437,-1.6441,-1.6479,-1.648,-1.6481,-1.6481,0,-1.6152,-1.6154,-1.6183,-1.6214,-1.6238,-1.6262,-1.6285,-1.6301,-1.6306,-1.6329,-1.6364,-1.6385,-1.6426,-1.6459,-1.6489,-1.65,-1.6492,-1.6491,-1.6501,-1.6504,-1.6502,-1.6505,-1.6393,-1.6489,-1.6488,-1.6488,-1.6487,-1.6487,-1.6212,-1.6239,-1.6262,-1.6295,-1.6312,-1.6334,-1.6361,-1.6371,-1.64,-1.6434,-1.6432,-1.6471,-1.6492,-1.6532,-1.6546,-1.6576,-1.6564,-1.6577,-1.6581,-1.6585,-1.6589,-1.6496,-1.6581,-1.6581,-1.658,-1.658,-1.658,0,-1.6296,-1.631,-1.634,-1.6373,-1.6399,-1.6388,-1.6413,-1.6435,-1.647,-1.649,-1.6517,-1.6557,-1.6589,-1.6603,-1.6634,-1.6656,-1.6653,-1.6664,-1.6664,-1.6667,-1.6597,-1.6587,-1.6666,-1.6666,-1.6666,-1.6666,-1.6666,-1.6666,-1.6343,-1.639,-1.6394,-1.645,-1.6463,-1.6501,-1.6516,-1.6536,-1.6553,-1.6599,-1.6626,-1.6634,-1.6652,-1.6685,-1.6714,-1.6717,-1.673,-1.6743,-1.6745,-1.668,-1.6671,-1.6663,-1.6653,-1.6746,-1.6746,-1.6812,-1.6812,-1.6813]}]]